Tracking 30072 objects as of 14-Jan-2025
HD Live streaming from Space Station
objects crossing your sky now

STARLINK-2139

Track STARLINK-2139 now!
10-day predictions
STARLINK-2139 is classified as:


NORAD ID: 48554
Int'l Code: 2021-041B
Perigee: 553.5 km
Apogee: 555.0 km
Inclination: 53.1 °
Period: 95.6 minutes
Semi major axis: 6925 km
RCS: Unknown
Launch date: May 15, 2021
Source: United States (US)
Launch site: AIR FORCE EASTERN TEST RANGE (AFETR)
Your satellite tracking list
Your tracking list is empty




NASA's NSSDC Master Catalog

Two Line Element Set (TLE):
1 48554U 21041B   25013.27521053  .00007612  00000-0  52903-3 0  9998
2 48554  53.0529 219.2426 0001082 104.2149 255.8961 15.06422461201831
Source of the keplerian elements: AFSPC